"startDT [UTC]","vpos","CH4 [ppm]","stdev(CH4) [ppm]","CO2 [ppm]","stdev(CO2) [ppm]","H2O_reported [%]","stdev(H2O_reported)","CavityPressure [torr]","CavityTemp [C]","OutletValve","CH4_dry [ppm]","CO2_dry [ppm]","DasTemp [C]","EtalonTemp [C]","WarmBoxTemp [C]","MPVPosition","T_ECpre [C]","T_EC1 [C]","T_EC2 [C]","p_inlet [hPa]","p_in [hPa]","p_out [hPa]","T_inlet [C]","RH_inlet [%]","dwpt_inlet [C]","T_vent [C]","RH_vent [%]","dwpt_vent [C]","flow_vent [l min-1]","flow_inlet [l min-1]","dwpt_sample [C]","T_room [C]"
2016-11-27 00:00:00,0.0,1.96514,0.00042,410.521,0.026,0.0527,0.0016,139.998,45.000,31694.42950,1.96619,410.780,35.979,45.071,45.000,0.00,0.07,-272.87,-272.91,-8,533,-948,21.3,1.7,-31.5,21.7,1.8,-31.0,0.47,1.75,-15.7,27.8
2016-11-27 00:01:00,0.0,1.96525,0.00033,410.515,0.029,0.0530,0.0014,139.999,45.000,31693.42068,1.96625,410.775,35.966,45.071,45.000,0.00,0.06,-272.88,-272.92,-6,533,-948,21.3,1.7,-31.5,21.7,1.8,-30.9,0.48,2.11,-15.7,27.8
2016-11-27 00:02:00,0.0,1.96527,0.00037,410.500,0.038,0.0523,0.0018,140.004,45.000,31695.77814,1.96629,410.759,35.961,45.071,45.000,0.00,0.07,-272.88,-272.91,-8,533,-948,21.2,1.7,-31.6,21.7,1.8,-30.9,0.47,1.77,-15.7,27.8
2016-11-27 00:03:00,0.0,1.96491,0.00025,410.490,0.038,0.0525,0.0020,139.999,45.000,31696.05353,1.96592,410.749,35.965,45.071,45.000,0.00,0.07,-272.87,-272.91,-6,532,-948,21.2,1.7,-31.5,21.7,1.8,-30.9,0.47,2.09,-15.7,27.8
2016-11-27 00:04:00,0.0,1.96519,0.00032,410.505,0.028,0.0527,0.0019,139.999,45.000,31692.92382,1.96620,410.765,35.970,45.071,45.000,0.00,0.07,-272.88,-272.92,-8,532,-948,21.2,1.7,-31.5,21.7,1.8,-30.9,0.47,1.80,-15.7,27.8
2016-11-27 00:05:00,0.0,1.96522,0.00031,410.502,0.037,0.0524,0.0019,140.000,45.000,31693.90215,1.96624,410.760,35.991,45.071,45.000,0.00,0.07,-272.88,-272.92,-6,532,-948,21.3,1.7,-31.4,21.7,1.8,-30.8,0.47,2.05,-15.7,27.8
2016-11-27 00:06:00,0.0,1.96618,0.00188,410.515,0.037,0.0527,0.0018,140.001,45.000,31695.12673,1.96702,410.773,35.993,45.071,45.000,0.00,0.07,-272.87,-272.91,-8,532,-948,21.2,1.7,-31.5,21.7,1.8,-30.9,0.47,1.83,-15.7,27.8
2016-11-27 00:07:00,0.0,1.96848,0.00165,410.558,0.048,0.0522,0.0018,139.999,45.000,31693.68064,1.96963,410.817,35.955,45.071,45.000,0.00,0.06,-272.88,-272.91,-7,533,-948,21.2,1.7,-31.5,21.7,1.8,-30.9,0.48,2.03,-15.8,27.8
2016-11-27 00:08:00,0.0,1.96690,0.00053,410.540,0.035,0.0519,0.0018,139.999,45.000,31691.76424,1.96792,410.797,35.961,45.071,45.000,0.00,0.07,-272.89,-272.91,-7,532,-948,21.2,1.7,-31.6,21.7,1.8,-30.9,0.47,1.86,-15.7,27.8
2016-11-27 00:09:00,0.0,1.96552,0.00036,410.498,0.028,0.0512,0.0016,139.997,45.000,31690.88722,1.96655,410.751,35.981,45.071,45.000,0.00,0.07,-272.88,-272.91,-7,533,-948,21.2,1.7,-31.8,21.7,1.8,-31.1,0.48,1.99,-15.7,27.8
2016-11-27 00:10:00,0.0,1.96538,0.00045,410.492,0.037,0.0518,0.0018,140.001,45.000,31693.51351,1.96637,410.747,35.979,45.071,45.000,0.00,0.07,-272.88,-272.91,-7,532,-948,21.2,1.7,-31.8,21.7,1.8,-31.0,0.47,1.90,-15.8,27.8
2016-11-27 00:11:00,0.0,1.96574,0.00048,410.506,0.026,0.0524,0.0016,140.003,45.000,31693.93618,1.96675,410.765,35.966,45.071,45.000,0.00,0.06,-272.88,-272.91,-8,533,-948,21.3,1.7,-31.5,21.7,1.8,-30.9,0.48,1.95,-15.8,27.8
2016-11-27 00:12:00,0.0,1.96559,0.00052,410.522,0.025,0.0531,0.0016,139.998,45.000,31690.44410,1.96657,410.782,35.951,45.071,45.000,0.00,0.07,-272.88,-272.91,-6,532,-948,21.3,1.7,-31.5,21.7,1.8,-30.9,0.47,1.93,-15.8,27.8
2016-11-27 00:13:00,0.0,1.97000,0.00342,410.602,0.077,0.0515,0.0023,140.001,45.000,31690.24482,1.97102,410.859,35.963,45.071,45.000,0.00,0.07,-272.87,-272.92,-8,533,-948,21.3,1.7,-31.7,21.7,1.8,-30.9,0.48,1.92,-15.8,27.8
2016-11-27 00:14:00,0.0,1.96605,0.00037,410.515,0.038,0.0515,0.0024,140.000,45.000,31690.08351,1.96705,410.767,35.950,45.071,45.000,0.00,0.06,-272.89,-272.91,-6,532,-948,21.3,1.7,-31.9,21.7,1.8,-31.1,0.47,1.98,-15.8,27.8
2016-11-27 00:15:00,0.0,1.96568,0.00034,410.519,0.022,0.0496,0.0022,140.000,45.000,31688.92328,1.96662,410.765,35.976,45.071,45.000,0.00,0.07,-272.87,-272.92,-8,532,-948,21.2,1.7,-31.9,21.7,1.7,-31.2,0.47,1.87,-15.8,27.8
2016-11-27 00:16:00,0.0,1.96569,0.00036,410.526,0.029,0.0504,0.0015,139.998,45.000,31688.22277,1.96668,410.774,36.000,45.071,45.000,0.00,0.07,-272.87,-272.91,-6,533,-948,21.3,1.7,-32.0,21.7,1.7,-31.2,0.47,2.02,-15.8,27.8
2016-11-27 00:17:00,0.0,1.96635,0.00048,410.544,0.035,0.0510,0.0017,140.001,45.000,31687.91774,1.96733,410.795,35.997,45.071,45.000,0.00,0.07,-272.88,-272.92,-8,532,-948,21.2,1.7,-31.9,21.7,1.7,-31.2,0.48,1.83,-15.8,27.8
2016-11-27 00:18:00,0.0,1.96598,0.00048,410.542,0.033,0.0507,0.0023,139.998,45.000,31686.91461,1.96699,410.793,35.993,45.071,45.000,0.00,0.07,-272.89,-272.92,-7,533,-948,21.2,1.7,-31.8,21.7,1.8,-31.0,0.47,2.06,-15.8,27.8
2016-11-27 00:19:00,0.0,1.96598,0.00052,410.521,0.026,0.0511,0.0019,140.003,45.000,31686.23988,1.96695,410.774,35.997,45.071,45.000,0.00,0.07,-272.87,-272.92,-7,532,-948,21.2,1.7,-31.9,21.7,1.7,-31.3,0.47,1.79,-15.8,27.8
2016-11-27 00:20:00,0.0,1.96588,0.00036,410.490,0.032,0.0509,0.0017,140.000,45.000,31687.21467,1.96687,410.741,35.993,45.071,45.000,0.00,0.07,-272.88,-272.91,-7,533,-948,21.2,1.7,-31.8,21.7,1.7,-31.3,0.47,2.10,-15.8,27.8
2016-11-27 00:21:00,0.0,1.96594,0.00034,410.487,0.029,0.0509,0.0018,140.000,45.000,31689.88616,1.96692,410.737,35.988,45.071,45.000,0.00,0.07,-272.88,-272.92,-7,532,-948,21.2,1.7,-31.8,21.7,1.8,-31.1,0.47,1.76,-15.8,27.8
2016-11-27 00:22:00,0.0,1.96588,0.00045,410.469,0.048,0.0515,0.0021,140.001,45.000,31690.62895,1.96682,410.722,35.958,45.071,45.000,0.00,0.07,-272.88,-272.91,-8,533,-948,21.2,1.7,-31.7,21.7,1.8,-31.1,0.47,2.12,-15.8,27.8
2016-11-27 00:23:00,0.0,1.96761,0.00080,410.510,0.042,0.0512,0.0015,139.996,45.000,31687.49378,1.96853,410.763,35.959,45.071,45.000,0.00,0.07,-272.87,-272.91,-6,532,-948,21.2,1.7,-31.9,21.7,1.8,-31.0,0.47,1.74,-15.8,27.8
2016-11-27 00:24:00,0.0,1.96839,0.00097,410.498,0.051,0.0504,0.0017,140.000,45.000,31686.58847,1.96937,410.747,35.954,45.071,45.000,0.00,0.07,-272.89,-272.91,-8,533,-948,21.2,1.6,-32.0,21.7,1.7,-31.2,0.47,2.13,-15.8,27.8
2016-11-27 00:25:00,0.0,1.96761,0.00128,410.482,0.055,0.0507,0.0015,139.999,45.000,31684.59005,1.96870,410.733,35.951,45.071,45.000,0.00,0.07,-272.88,-272.92,-6,532,-948,21.2,1.7,-32.0,21.7,1.7,-31.3,0.47,1.73,-15.8,27.8
2016-11-27 00:26:00,0.0,1.96756,0.00094,410.474,0.045,0.0508,0.0016,139.999,45.000,31684.79920,1.96843,410.724,35.943,45.071,45.000,0.00,0.06,-272.88,-272.91,-8,532,-948,21.2,1.7,-32.0,21.7,1.7,-31.2,0.47,2.13,-15.8,27.8
2016-11-27 00:27:00,0.0,1.96901,0.00038,410.523,0.028,0.0516,0.0017,140.000,45.000,31684.71443,1.97000,410.779,35.951,45.071,45.000,0.00,0.07,-272.87,-272.91,-6,532,-948,21.2,1.7,-31.8,21.7,1.7,-31.2,0.47,1.74,-15.8,27.8
2016-11-27 00:28:00,0.0,1.96838,0.00047,410.488,0.019,0.0509,0.0015,140.001,45.000,31685.65987,1.96942,410.738,35.950,45.071,45.000,0.00,0.06,-272.89,-272.92,-8,532,-948,21.3,1.7,-31.9,21.7,1.8,-31.1,0.47,2.12,-15.8,27.8
2016-11-27 00:29:00,0.0,1.96712,0.00063,410.455,0.044,0.0509,0.0013,140.000,45.000,31686.27870,1.96815,410.707,35.939,45.071,45.000,0.00,0.07,-272.88,-272.92,-6,532,-948,21.2,1.7,-31.9,21.7,1.7,-31.3,0.47,1.76,-15.8,27.8
2016-11-27 00:30:00,0.0,1.96653,0.00055,410.443,0.044,0.0502,0.0012,139.999,45.000,31687.55525,1.96750,410.690,35.947,45.071,45.000,0.00,0.07,-272.87,-272.92,-8,532,-948,21.2,1.7,-31.9,21.7,1.7,-31.2,0.48,2.10,-15.8,27.8
2016-11-27 00:31:00,0.0,1.96651,0.00076,410.421,0.042,0.0510,0.0018,140.003,45.000,31686.61599,1.96748,410.673,35.943,45.071,45.000,0.00,0.07,-272.88,-272.92,-7,533,-948,21.2,1.7,-31.7,21.7,1.7,-31.2,0.47,1.78,-15.8,27.7
2016-11-27 00:32:00,0.0,1.97375,0.00260,410.569,0.068,0.0521,0.0014,140.001,45.000,31687.02567,1.97447,410.823,35.938,45.071,45.000,0.00,0.07,-272.88,-272.92,-7,532,-948,21.2,1.7,-31.7,21.7,1.7,-31.2,0.48,2.08,-15.8,27.7
2016-11-27 00:33:00,0.0,1.97520,0.00066,410.631,0.030,0.0511,0.0017,140.001,45.000,31686.75541,1.97623,410.884,35.942,45.071,45.000,0.00,0.07,-272.88,-272.91,-7,532,-948,21.2,1.7,-31.8,21.7,1.8,-31.1,0.47,1.81,-15.8,27.8
2016-11-27 00:34:00,0.0,1.97242,0.00147,410.617,0.046,0.0496,0.0020,140.001,45.000,31686.40377,1.97349,410.862,35.948,45.071,45.000,0.00,0.07,-272.88,-272.92,-7,532,-948,21.2,1.6,-32.2,21.6,1.7,-31.3,0.48,2.04,-15.8,27.8
2016-11-27 00:35:00,0.0,1.97235,0.00048,410.626,0.020,0.0462,0.0015,140.001,45.000,31686.05217,1.97324,410.854,35.968,45.071,45.000,0.00,0.07,-272.89,-272.92,-8,532,-948,21.2,1.5,-32.7,21.7,1.7,-31.7,0.47,1.86,-15.8,27.7
2016-11-27 00:36:00,0.0,1.97026,0.00098,410.555,0.042,0.0467,0.0019,139.999,45.000,31687.40942,1.97125,410.787,35.965,45.071,45.000,0.00,0.07,-272.87,-272.91,-6,532,-948,21.2,1.5,-32.8,21.7,1.6,-31.9,0.48,1.99,-15.8,27.8
2016-11-27 00:37:00,0.0,1.96855,0.00098,410.516,0.037,0.0485,0.0016,139.998,45.000,31685.20486,1.96947,410.756,35.967,45.071,45.000,0.00,0.07,-272.89,-272.91,-8,532,-948,21.2,1.6,-32.5,21.6,1.6,-31.9,0.47,1.91,-15.8,27.7
2016-11-27 00:38:00,0.0,1.96990,0.00049,410.550,0.033,0.0487,0.0016,140.001,45.000,31685.41390,1.97084,410.789,35.953,45.071,45.000,0.00,0.06,-272.88,-272.92,-6,532,-948,21.2,1.6,-32.2,21.7,1.7,-31.7,0.48,1.94,-15.8,27.8
2016-11-27 00:39:00,0.0,1.96833,0.00089,410.519,0.037,0.0506,0.0016,140.000,45.000,31686.23210,1.96941,410.772,35.972,45.071,45.000,0.00,0.07,-272.88,-272.91,-8,532,-948,21.2,1.6,-32.1,21.7,1.7,-31.5,0.47,1.95,-15.8,27.7
2016-11-27 00:40:00,0.0,1.96908,0.00108,410.514,0.039,0.0509,0.0016,139.998,45.000,31686.12140,1.96997,410.764,35.988,45.071,45.000,0.00,0.07,-272.87,-272.92,-6,532,-948,21.2,1.7,-31.9,21.6,1.7,-31.3,0.48,1.90,-15.8,27.7
2016-11-27 00:41:00,0.0,1.96945,0.00047,410.519,0.034,0.0495,0.0020,139.999,45.000,31688.96043,1.97041,410.763,35.997,45.071,45.000,0.00,0.06,-272.88,-272.91,-8,532,-948,21.2,1.7,-31.9,21.6,1.7,-31.2,0.47,1.99,-15.8,27.7
2016-11-27 00:42:00,0.0,1.96919,0.00064,410.537,0.036,0.0503,0.0016,139.997,45.000,31689.37470,1.97020,410.785,35.998,45.071,45.000,0.00,0.07,-272.88,-272.92,-6,532,-948,21.2,1.7,-31.8,21.7,1.7,-31.2,0.48,1.86,-15.8,27.7
2016-11-27 00:43:00,0.0,1.96921,0.00052,410.539,0.030,0.0499,0.0018,140.000,45.000,31687.97338,1.97017,410.786,35.998,45.071,45.000,0.00,0.07,-272.88,-272.91,-8,532,-948,21.2,1.7,-31.9,21.6,1.8,-31.1,0.47,2.03,-15.8,27.7
2016-11-27 00:44:00,0.0,1.96805,0.00076,410.519,0.036,0.0498,0.0019,140.002,45.000,31686.20237,1.96902,410.764,35.994,45.071,45.000,0.00,0.07,-272.88,-272.92,-7,533,-948,21.2,1.7,-32.0,21.6,1.7,-31.3,0.48,1.82,-15.8,27.7
2016-11-27 00:45:00,0.0,1.96805,0.00068,410.489,0.041,0.0504,0.0018,140.002,45.000,31688.30494,1.96902,410.738,35.985,45.071,45.000,0.00,0.07,-272.89,-272.92,-7,532,-948,21.2,1.7,-32.0,21.6,1.7,-31.2,0.47,2.08,-15.8,27.7
2016-11-27 00:46:00,0.0,1.96726,0.00067,410.477,0.041,0.0504,0.0018,139.996,45.000,31685.52662,1.96826,410.727,35.999,45.071,45.000,0.00,0.07,-272.87,-272.92,-7,533,-948,21.2,1.7,-32.0,21.7,1.7,-31.4,0.48,1.78,-15.8,27.7
2016-11-27 00:47:00,0.0,1.96796,0.00048,410.517,0.044,0.0502,0.0017,140.001,45.000,31685.50175,1.96889,410.764,35.997,45.071,45.000,0.00,0.07,-272.88,-272.91,-6,532,-948,21.2,1.7,-31.8,21.6,1.7,-31.2,0.47,2.10,-15.8,27.7
2016-11-27 00:48:00,0.0,1.96910,0.00033,410.555,0.039,0.0509,0.0013,140.000,45.000,31684.04992,1.97009,410.806,35.998,45.071,45.000,0.00,0.06,-272.88,-272.91,-8,532,-948,21.2,1.7,-31.9,21.7,1.7,-31.2,0.47,1.76,-15.8,27.8
2016-11-27 00:49:00,0.0,1.96813,0.00069,410.495,0.040,0.0501,0.0019,139.999,45.000,31684.66497,1.96914,410.743,35.998,45.071,45.000,0.00,0.07,-272.88,-272.91,-6,532,-948,21.2,1.7,-32.0,21.6,1.7,-31.3,0.47,2.12,-15.8,27.7
2016-11-27 00:50:00,0.0,1.96763,0.00059,410.477,0.040,0.0500,0.0016,139.998,45.000,31684.47471,1.96860,410.725,36.000,45.071,45.000,0.00,0.07,-272.87,-272.91,-8,532,-948,21.2,1.6,-32.1,21.6,1.7,-31.3,0.48,1.74,-15.8,27.8
2016-11-27 00:51:00,0.0,1.96831,0.00057,410.496,0.032,0.0500,0.0018,139.999,45.000,31684.78061,1.96925,410.742,36.000,45.071,45.000,0.00,0.06,-272.88,-272.91,-6,532,-948,21.2,1.6,-32.2,21.6,1.7,-31.4,0.47,2.13,-15.8,27.8
2016-11-27 00:52:00,0.0,1.96859,0.00038,410.497,0.038,0.0501,0.0021,139.998,45.000,31684.89061,1.96955,410.745,35.997,45.071,45.000,0.00,0.07,-272.88,-272.92,-8,532,-948,21.2,1.6,-32.1,21.6,1.7,-31.4,0.47,1.74,-15.8,27.7
2016-11-27 00:53:00,0.0,1.96831,0.00044,410.509,0.039,0.0503,0.0013,140.002,45.000,31686.54194,1.96930,410.758,35.947,45.071,45.000,0.00,0.07,-272.88,-272.91,-6,532,-948,21.2,1.6,-32.1,21.6,1.7,-31.5,0.48,2.13,-15.8,27.7
2016-11-27 00:54:00,0.0,1.96770,0.00059,410.463,0.033,0.0488,0.0016,139.998,45.000,31684.77549,1.96871,410.705,35.938,45.072,45.000,0.00,0.07,-272.87,-272.91,-8,532,-948,21.2,1.6,-32.1,21.6,1.7,-31.4,0.47,1.74,-15.8,27.7
2016-11-27 00:55:00,0.0,1.96563,0.00083,410.378,0.032,0.0494,0.0020,139.999,45.000,31686.58819,1.96658,410.622,35.937,45.072,45.000,0.00,0.07,-272.88,-272.92,-7,532,-948,21.2,1.6,-32.2,21.6,1.7,-31.4,0.47,2.13,-15.8,27.7
2016-11-27 00:56:00,0.0,1.96579,0.00069,410.356,0.033,0.0503,0.0022,139.999,45.000,31686.88388,1.96678,410.604,35.938,45.072,45.000,0.00,0.07,-272.88,-272.91,-7,532,-948,21.2,1.6,-32.1,21.6,1.7,-31.5,0.47,1.75,-15.8,27.7
2016-11-27 00:57:00,0.0,1.96654,0.00093,410.371,0.053,0.0498,0.0022,140.000,45.000,31689.28184,1.96759,410.619,35.937,45.072,45.000,0.00,0.07,-272.87,-272.91,-7,532,-948,21.2,1.6,-32.1,21.6,1.7,-31.5,0.48,2.12,-15.8,27.8
2016-11-27 00:58:00,0.0,1.96662,0.00115,410.372,0.044,0.0500,0.0020,140.000,45.000,31690.10364,1.96745,410.615,35.937,45.072,45.000,0.00,0.07,-272.88,-272.92,-7,532,-948,21.2,1.6,-32.0,21.6,1.7,-31.3,0.47,1.76,-15.8,27.7
2016-11-27 00:59:00,0.0,1.96651,0.00120,410.344,0.066,0.0505,0.0015,139.999,45.000,31689.20396,1.96750,410.596,35.934,45.072,45.000,0.00,0.07,-272.88,-272.92,-7,532,-948,21.2,1.6,-32.1,21.6,1.7,-31.3,0.48,2.09,-15.8,27.7
2016-11-27 01:00:00,0.0,1.96688,0.00088,410.346,0.045,0.0494,0.0017,139.999,45.000,31687.13327,1.96780,410.588,35.936,45.071,45.000,0.00,0.07,-272.88,-272.91,-6,532,-948,21.2,1.7,-32.0,21.6,1.7,-31.3,0.47,1.79,-15.8,27.7
2016-11-27 01:01:00,0.0,1.96907,0.00042,410.427,0.031,0.0500,0.0012,140.000,45.000,31685.82203,1.97006,410.674,35.939,45.071,45.000,0.00,0.06,-272.88,-272.91,-8,532,-948,21.2,1.7,-32.0,21.6,1.7,-31.4,0.48,2.06,-15.8,27.7
2016-11-27 01:02:00,0.0,1.96878,0.00055,410.400,0.035,0.0498,0.0014,140.000,45.000,31685.18725,1.96972,410.645,35.938,45.071,45.000,0.00,0.07,-272.89,-272.92,-6,532,-948,21.2,1.6,-32.2,21.6,1.7,-31.4,0.47,1.83,-15.8,27.7
2016-11-27 01:03:00,0.0,1.96887,0.00076,410.423,0.041,0.0492,0.0019,139.998,45.000,31685.76054,1.96981,410.664,35.939,45.071,45.000,0.00,0.07,-272.88,-272.92,-8,532,-948,21.2,1.6,-32.1,21.6,1.7,-31.5,0.48,2.03,-15.8,27.7
2016-11-27 01:04:00,0.0,1.96986,0.00047,410.442,0.028,0.0491,0.0011,140.002,45.000,31688.97566,1.97079,410.685,35.938,45.071,45.000,0.00,0.07,-272.88,-272.91,-6,532,-948,21.2,1.6,-32.3,21.6,1.7,-31.4,0.47,1.87,-15.8,27.7
2016-11-27 01:05:00,0.0,1.96898,0.00068,410.405,0.053,0.0493,0.0023,139.999,45.000,31687.65082,1.97000,410.648,35.938,45.071,45.000,0.00,0.06,-272.88,-272.91,-8,532,-948,21.2,1.6,-32.2,21.6,1.7,-31.6,0.48,1.98,-15.8,27.8
2016-11-27 01:06:00,0.0,1.96877,0.00037,410.384,0.030,0.0487,0.0017,139.999,45.000,31686.68126,1.96969,410.625,35.937,45.071,45.000,0.00,0.07,-272.88,-272.91,-6,532,-948,21.2,1.6,-32.3,21.6,1.7,-31.6,0.47,1.90,-15.8,27.7
2016-11-27 01:07:00,0.0,1.96907,0.00039,410.396,0.032,0.0483,0.0014,140.002,45.000,31687.01502,1.97000,410.634,35.933,45.071,45.000,0.00,0.07,-272.87,-272.91,-7,532,-948,21.2,1.6,-32.4,21.6,1.7,-31.6,0.48,1.94,-15.8,27.7
2016-11-27 01:08:00,0.0,1.96889,0.00054,410.427,0.041,0.0486,0.0015,139.999,45.000,31686.60610,1.96987,410.667,35.915,45.071,45.000,0.00,0.07,-272.88,-272.91,-7,532,-948,21.2,1.6,-32.4,21.6,1.7,-31.7,0.47,1.95,-15.8,27.7
2016-11-27 01:09:00,0.0,1.96818,0.00049,410.378,0.031,0.0478,0.0019,140.001,45.000,31688.83593,1.96909,410.614,35.930,45.071,45.000,0.00,0.07,-272.87,-272.92,-7,532,-948,21.2,1.6,-32.4,21.6,1.7,-31.6,0.48,1.90,-15.8,27.7
2016-11-27 01:10:00,0.0,1.96720,0.00055,410.348,0.035,0.0482,0.0019,139.999,45.000,31687.54150,1.96816,410.587,35.931,45.071,45.000,0.00,0.07,-272.88,-272.91,-7,532,-948,21.2,1.6,-32.4,21.6,1.7,-31.6,0.47,1.99,-15.8,27.7
2016-11-27 01:11:00,0.0,1.96684,0.00057,410.331,0.037,0.0485,0.0020,140.001,45.000,31687.17620,1.96777,410.571,35.901,45.071,45.000,0.00,0.07,-272.87,-272.92,-6,532,-948,21.2,1.6,-32.2,21.6,1.7,-31.6,0.48,1.87,-15.8,27.7
2016-11-27 01:12:00,0.0,1.96689,0.00048,410.350,0.035,0.0486,0.0020,139.997,45.000,31686.14740,1.96782,410.589,35.877,45.071,45.000,0.00,0.07,-272.89,-272.92,-8,532,-948,21.2,1.6,-32.2,21.6,1.7,-31.7,0.47,2.03,-15.8,27.7
2016-11-27 01:13:00,0.0,1.96813,0.00053,410.388,0.044,0.0498,0.0016,140.000,45.000,31687.28510,1.96907,410.631,35.875,45.072,45.000,0.00,0.07,-272.88,-272.92,-6,532,-948,21.2,1.6,-32.2,21.6,1.7,-31.5,0.48,1.83,-15.8,27.7
2016-11-27 01:14:00,0.0,1.96830,0.00059,410.390,0.024,0.0500,0.0024,139.999,45.000,31688.65288,1.96927,410.637,35.879,45.072,45.000,0.00,0.07,-272.88,-272.91,-8,532,-948,21.2,1.6,-32.1,21.6,1.7,-31.4,0.47,2.06,-15.8,27.7
2016-11-27 01:15:00,0.0,1.96824,0.00042,410.385,0.030,0.0496,0.0019,139.998,45.000,31687.80630,1.96921,410.630,35.882,45.072,45.000,0.00,0.07,-272.88,-272.92,-6,532,-948,21.2,1.6,-32.2,21.6,1.7,-31.5,0.48,1.80,-15.8,27.7
2016-11-27 01:16:00,0.0,1.96864,0.00045,410.364,0.031,0.0485,0.0024,140.000,45.000,31688.59897,1.96953,410.603,35.880,45.071,45.000,0.00,0.07,-272.89,-272.91,-8,532,-948,21.2,1.6,-32.2,21.6,1.7,-31.7,0.47,2.09,-15.8,27.7
2016-11-27 01:17:00,0.0,1.97014,0.00074,410.429,0.022,0.0484,0.0019,139.999,45.000,31688.73535,1.97103,410.667,35.892,45.072,45.000,0.00,0.07,-272.87,-272.91,-6,532,-948,21.2,1.6,-32.3,21.6,1.7,-31.6,0.48,1.77,-15.8,27.7
2016-11-27 01:18:00,0.0,1.96912,0.00082,410.381,0.056,0.0481,0.0013,140.000,45.000,31689.86589,1.97013,410.620,35.875,45.071,45.000,0.00,0.07,-272.89,-272.91,-7,532,-948,21.2,1.6,-32.3,21.6,1.7,-31.6,0.47,2.11,-15.8,27.7
2016-11-27 01:19:00,0.0,1.96646,0.00072,410.251,0.038,0.0485,0.0021,140.002,45.000,31691.91257,1.96745,410.490,35.876,45.071,45.000,0.00,0.07,-272.88,-272.92,-7,532,-948,21.2,1.6,-32.4,21.6,1.7,-31.6,0.48,1.75,-15.8,27.7
2016-11-27 01:20:00,0.0,1.96636,0.00047,410.270,0.030,0.0486,0.0018,139.999,45.000,31689.47600,1.96736,410.511,35.876,45.071,45.000,0.00,0.07,-272.87,-272.91,-7,532,-948,21.2,1.6,-32.4,21.6,1.7,-31.7,0.48,2.13,-15.8,27.7
2016-11-27 01:21:00,0.0,1.96435,0.00049,410.181,0.049,0.0486,0.0020,140.001,45.000,31690.97230,1.96533,410.421,35.874,45.071,45.000,0.00,0.07,-272.87,-272.91,-7,532,-948,21.2,1.6,-32.4,21.6,1.7,-31.7,0.47,1.74,-15.8,27.7
2016-11-27 01:22:00,0.0,1.96592,0.00076,410.202,0.051,0.0487,0.0019,139.999,45.000,31691.54628,1.96680,410.443,35.875,45.071,45.000,0.00,0.06,-272.88,-272.92,-7,532,-948,21.2,1.6,-32.2,21.6,1.7,-31.6,0.47,2.14,-15.8,27.7
2016-11-27 01:23:00,0.0,1.96641,0.00063,410.251,0.044,0.0477,0.0017,140.001,45.000,31692.34395,1.96734,410.485,35.876,45.071,45.000,0.00,0.07,-272.87,-272.91,-8,532,-948,21.2,1.6,-32.2,21.6,1.7,-31.7,0.47,1.74,-15.8,27.7
2016-11-27 01:24:00,0.0,1.96708,0.00053,410.291,0.046,0.0493,0.0014,139.998,45.000,31688.62449,1.96801,410.534,35.875,45.071,45.000,0.00,0.07,-272.88,-272.91,-6,532,-948,21.2,1.6,-32.1,21.6,1.7,-31.6,0.48,2.13,-15.8,27.7
2016-11-27 01:25:00,0.0,1.96738,0.00042,410.290,0.027,0.0481,0.0019,140.001,45.000,31689.06181,1.96834,410.528,35.873,45.071,45.000,0.00,0.07,-272.88,-272.92,-8,532,-948,21.2,1.6,-32.2,21.6,1.7,-31.6,0.47,1.74,-15.8,27.7
2016-11-27 01:26:00,0.0,1.96561,0.00055,410.204,0.037,0.0479,0.0013,139.999,45.000,31687.86959,1.96657,410.441,35.875,45.071,45.000,0.00,0.06,-272.88,-272.91,-6,532,-948,21.2,1.6,-32.3,21.6,1.7,-31.6,0.48,2.13,-15.8,27.7
2016-11-27 01:27:00,0.0,1.96558,0.00051,410.220,0.037,0.0479,0.0018,140.000,45.000,31686.92581,1.96648,410.455,35.875,45.071,45.000,0.00,0.07,-272.88,-272.90,-8,532,-948,21.1,1.6,-32.5,21.6,1.6,-31.8,0.47,1.75,-15.8,27.7
2016-11-27 01:28:00,0.0,1.96642,0.00050,410.247,0.038,0.0475,0.0020,140.003,45.000,31688.09704,1.96732,410.482,35.877,45.071,45.000,0.00,0.07,-272.89,-272.92,-6,532,-948,21.1,1.6,-32.5,21.6,1.6,-31.8,0.48,2.12,-15.8,27.7
2016-11-27 01:29:00,0.0,1.96607,0.00055,410.214,0.032,0.0478,0.0014,139.997,45.000,31686.34483,1.96703,410.450,35.897,45.071,45.000,0.00,0.07,-272.88,-272.92,-8,532,-948,21.1,1.6,-32.4,21.6,1.6,-31.8,0.47,1.77,-15.8,27.7
2016-11-27 01:30:00,0.0,1.96552,0.00060,410.197,0.037,0.0482,0.0017,139.999,45.000,31688.09328,1.96649,410.434,35.909,45.071,45.000,0.00,0.06,-272.87,-272.91,-6,532,-948,21.1,1.6,-32.2,21.6,1.6,-31.8,0.48,2.10,-15.9,27.7
2016-11-27 01:31:00,0.0,1.96558,0.00039,410.231,0.035,0.0477,0.0020,140.000,45.000,31685.62290,1.96646,410.466,35.934,45.071,45.000,0.00,0.07,-272.88,-272.91,-7,532,-948,21.1,1.6,-32.2,21.6,1.7,-31.7,0.47,1.78,-15.8,27.7
2016-11-27 01:32:00,0.0,1.96584,0.00043,410.222,0.044,0.0480,0.0017,140.005,45.000,31686.73171,1.96677,410.460,35.903,45.071,45.000,0.00,0.06,-272.89,-272.91,-7,532,-948,21.2,1.6,-32.3,21.6,1.6,-31.8,0.48,2.08,-15.9,27.7
2016-11-27 01:33:00,0.0,1.96537,0.00029,410.191,0.023,0.0488,0.0017,139.999,45.000,31684.66488,1.96634,410.431,35.880,45.071,45.000,0.00,0.07,-272.88,-272.91,-7,532,-948,21.2,1.6,-32.3,21.6,1.6,-31.8,0.47,1.81,-15.8,27.7
2016-11-27 01:34:00,0.0,1.96552,0.00042,410.206,0.026,0.0475,0.0017,139.999,45.000,31685.57875,1.96641,410.439,35.882,45.071,45.000,0.00,0.07,-272.87,-272.92,-7,532,-948,21.1,1.6,-32.2,21.6,1.7,-31.7,0.48,2.05,-15.8,27.7
2016-11-27 01:35:00,0.0,1.96564,0.00070,410.225,0.043,0.0481,0.0018,140.001,45.000,31684.81753,1.96661,410.463,35.875,45.071,45.000,0.00,0.07,-272.88,-272.91,-6,532,-948,21.1,1.6,-32.3,21.6,1.7,-31.6,0.47,1.83,-15.8,27.7
2016-11-27 01:36:00,0.0,1.96512,0.00053,410.179,0.037,0.0481,0.0013,140.005,45.000,31685.74851,1.96606,410.415,35.874,45.071,45.000,0.00,0.06,-272.88,-272.92,-8,532,-948,21.1,1.6,-32.3,21.6,1.7,-31.6,0.48,2.02,-15.9,27.7
2016-11-27 01:37:00,0.0,1.96459,0.00045,410.151,0.033,0.0482,0.0018,140.000,45.000,31684.94208,1.96548,410.388,35.864,45.071,45.000,0.00,0.07,-272.88,-272.90,-6,532,-948,21.2,1.6,-32.3,21.6,1.7,-31.6,0.47,1.87,-15.9,27.7
2016-11-27 01:38:00,0.0,1.96505,0.00072,410.224,0.040,0.0480,0.0015,140.002,45.000,31684.27077,1.96597,410.460,35.859,45.071,45.000,0.00,0.07,-272.88,-272.92,-8,532,-948,21.2,1.6,-32.2,21.6,1.7,-31.6,0.48,1.99,-15.8,27.7
2016-11-27 01:39:00,0.0,1.96545,0.00062,410.217,0.052,0.0492,0.0016,140.001,45.000,31681.96182,1.96645,410.463,35.841,45.071,45.000,0.00,0.07,-272.89,-272.92,-6,532,-948,21.2,1.6,-32.1,21.6,1.7,-31.6,0.47,1.91,-15.8,27.7
2016-11-27 01:40:00,0.0,1.96489,0.00059,410.192,0.046,0.0494,0.0020,140.001,45.000,31680.97117,1.96581,410.434,35.814,45.071,45.000,0.00,0.07,-272.87,-272.92,-8,532,-948,21.2,1.6,-32.3,21.6,1.7,-31.5,0.48,1.94,-15.8,27.7
2016-11-27 01:41:00,0.0,1.96512,0.00049,410.200,0.035,0.0493,0.0015,140.000,45.000,31683.70178,1.96609,410.443,35.824,45.071,45.000,0.00,0.07,-272.88,-272.90,-6,532,-948,21.2,1.6,-32.2,21.6,1.7,-31.6,0.47,1.95,-15.8,27.7
2016-11-27 01:42:00,0.0,1.96469,0.00043,410.209,0.039,0.0489,0.0012,139.999,45.000,31682.42503,1.96561,410.449,35.830,45.071,45.000,0.00,0.06,-272.89,-272.92,-7,532,-948,21.2,1.6,-32.1,21.6,1.7,-31.6,0.48,1.91,-15.8,27.7
2016-11-27 01:43:00,0.0,1.96433,0.00046,410.198,0.023,0.0493,0.0019,140.001,45.000,31682.52201,1.96531,410.442,35.863,45.071,45.000,0.00,0.07,-272.89,-272.91,-7,532,-948,21.2,1.6,-32.3,21.6,1.7,-31.7,0.47,1.99,-15.9,27.7
2016-11-27 01:44:00,0.0,1.96441,0.00039,410.203,0.028,0.0486,0.0018,140.000,45.000,31682.74940,1.96536,410.443,35.853,45.071,45.000,0.00,0.07,-272.87,-272.91,-7,532,-948,21.1,1.7,-32.1,21.6,1.7,-31.8,0.48,1.86,-15.9,27.7
2016-11-27 01:45:00,0.0,1.96425,0.00033,410.188,0.028,0.0496,0.0019,140.000,45.000,31681.32630,1.96520,410.431,35.862,45.071,45.000,0.00,0.07,-272.88,-272.92,-7,532,-948,21.2,1.7,-32.0,21.6,1.7,-31.4,0.47,2.03,-15.9,27.7